contact:dominique.lefevre@mio.osupytheas.fr, maurice.libes@osupytheas.fr, didier.mallarino@osupytheas.fr
Project:EMSO http://www.emso-fr.org/EMSO-France
Depth: 2436.0 m
Title:EMSO Ligure Ouest : Data MII capteur CSTAR
DateTime,Latitude,Longitude,Instrument_Serial,Reference_Counts,Signal_Counts,Corrected_Signal_raw_counts,Calculated_Beam_c_inverse_meters,Internal_thermistor_counts
DateTime,Latitude,Longitude,Instrument_Serial,Reference_Counts,Signal_Counts,Corrected_Signal_raw_counts,Calculated_Beam_c_inverse_meters,Internal_thermistor_counts
2023-10-01T00:00:26,42.805,6.029,CST-1368DR,4150,4487,11462,01.237,552
2023-10-01T00:03:27,42.805,6.029,CST-1368DR,4150,4488,11464,01.236,553
2023-10-01T00:06:29,42.805,6.029,CST-1368DR,4150,4487,11461,01.237,553
2023-10-01T00:09:30,42.805,6.029,CST-1368DR,4150,4487,11462,01.237,553
2023-10-01T00:12:32,42.805,6.029,CST-1368DR,4150,4487,11462,01.237,553
2023-10-01T00:15:34,42.805,6.029,CST-1368DR,4150,4487,11462,01.237,553
2023-10-01T00:18:35,42.805,6.029,CST-1368DR,4150,4487,11463,01.237,553
2023-10-01T00:21:37,42.805,6.029,CST-1368DR,4150,4487,11462,01.237,552
2023-10-01T00:24:38,42.805,6.029,CST-1368DR,4150,4487,11462,01.237,553
2023-10-01T00:27:40,42.805,6.029,CST-1368DR,4150,4487,11462,01.237,552
2023-10-01T00:30:41,42.805,6.029,CST-1368DR,4150,4487,11462,01.237,552
2023-10-01T00:33:43,42.805,6.029,CST-1368DR,4150,4487,11462,01.237,552
2023-10-01T00:36:45,42.805,6.029,CST-1368DR,4150,4486,11461,01.237,553
2023-10-01T00:39:46,42.805,6.029,CST-1368DR,4150,4487,11461,01.237,553
2023-10-01T00:42:48,42.805,6.029,CST-1368DR,4150,4487,11461,01.237,552
2023-10-01T00:45:49,42.805,6.029,CST-1368DR,4150,4488,11464,01.236,553
2023-10-01T00:48:51,42.805,6.029,CST-1368DR,4150,4486,11459,01.238,553
2023-10-01T00:51:53,42.805,6.029,CST-1368DR,4150,4484,11455,01.239,553
2023-10-01T00:54:54,42.805,6.029,CST-1368DR,4150,4485,11456,01.239,553
2023-10-01T00:57:56,42.805,6.029,CST-1368DR,4150,4485,11457,01.239,553
2023-10-01T01:00:57,42.805,6.029,CST-1368DR,4150,4484,11454,01.240,552
2023-10-01T01:03:59,42.805,6.029,CST-1368DR,4150,4484,11454,01.240,552
2023-10-01T01:07:00,42.805,6.029,CST-1368DR,4150,4484,11454,01.240,552
2023-10-01T01:10:02,42.805,6.029,CST-1368DR,4150,4486,11459,01.238,552
2023-10-01T01:13:04,42.805,6.029,CST-1368DR,4150,4483,11452,01.241,553
2023-10-01T01:16:05,42.805,6.029,CST-1368DR,4150,4483,11453,01.240,553
2023-10-01T01:19:07,42.805,6.029,CST-1368DR,4150,4484,11454,01.240,553
2023-10-01T01:22:08,42.805,6.029,CST-1368DR,4150,4484,11455,01.239,553
2023-10-01T01:25:10,42.805,6.029,CST-1368DR,4150,4483,11453,01.240,553
2023-10-01T01:28:11,42.805,6.029,CST-1368DR,4150,4483,11453,01.240,552
2023-10-01T01:31:13,42.805,6.029,CST-1368DR,4150,4485,11458,01.238,553
2023-10-01T01:34:15,42.805,6.029,CST-1368DR,4150,4484,11455,01.239,553
2023-10-01T01:37:16,42.805,6.029,CST-1368DR,4150,4484,11454,01.240,553
2023-10-01T01:40:18,42.805,6.029,CST-1368DR,4150,4483,11452,01.241,553
2023-10-01T01:43:19,42.805,6.029,CST-1368DR,4150,4484,11455,01.239,553
2023-10-01T01:46:21,42.805,6.029,CST-1368DR,4150,4484,11455,01.239,553
2023-10-01T01:49:23,42.805,6.029,CST-1368DR,4150,4485,11457,01.239,553
2023-10-01T01:52:24,42.805,6.029,CST-1368DR,4150,4486,11459,01.238,553
2023-10-01T01:55:26,42.805,6.029,CST-1368DR,4150,4483,11453,01.240,553
2023-10-01T01:58:27,42.805,6.029,CST-1368DR,4150,4483,11451,01.241,553
2023-10-01T02:01:29,42.805,6.029,CST-1368DR,4150,4484,11454,01.240,553
2023-10-01T02:04:30,42.805,6.029,CST-1368DR,4150,4485,11458,01.238,553
2023-10-01T02:07:32,42.805,6.029,CST-1368DR,4150,4484,11454,01.240,553
2023-10-01T02:10:34,42.805,6.029,CST-1368DR,4150,4485,11456,01.239,553
2023-10-01T02:13:35,42.805,6.029,CST-1368DR,4150,4486,11459,01.238,553
2023-10-01T02:16:37,42.805,6.029,CST-1368DR,4150,4486,11460,01.238,553
2023-10-01T02:19:38,42.805,6.029,CST-1368DR,4150,4484,11454,01.240,552
2023-10-01T02:22:40,42.805,6.029,CST-1368DR,4150,4484,11454,01.240,553
2023-10-01T02:25:41,42.805,6.029,CST-1368DR,4150,4486,11460,01.238,553
2023-10-01T02:28:43,42.805,6.029,CST-1368DR,4150,4485,11457,01.239,553
2023-10-01T02:31:45,42.805,6.029,CST-1368DR,4150,4485,11457,01.239,552
2023-10-01T02:34:46,42.805,6.029,CST-1368DR,4150,4483,11452,01.241,552
2023-10-01T02:37:48,42.805,6.029,CST-1368DR,4150,4486,11459,01.238,553
2023-10-01T02:40:49,42.805,6.029,CST-1368DR,4150,4486,11461,01.237,553
2023-10-01T02:43:51,42.805,6.029,CST-1368DR,4150,4484,11455,01.239,553
2023-10-01T02:46:53,42.805,6.029,CST-1368DR,4150,4486,11460,01.238,553
2023-10-01T02:49:54,42.805,6.029,CST-1368DR,4150,4486,11459,01.238,553
2023-10-01T02:52:56,42.805,6.029,CST-1368DR,4150,4485,11456,01.239,553
2023-10-01T02:55:57,42.805,6.029,CST-1368DR,4150,4486,11459,01.238,553
2023-10-01T02:58:59,42.805,6.029,CST-1368DR,4150,4483,11452,01.241,553
2023-10-01T03:02:00,42.805,6.029,CST-1368DR,4150,4486,11459,01.238,553
2023-10-01T03:05:02,42.805,6.029,CST-1368DR,4150,4485,11456,01.239,553
2023-10-01T03:08:04,42.805,6.029,CST-1368DR,4150,4485,11456,01.239,553
2023-10-01T03:11:05,42.805,6.029,CST-1368DR,4150,4486,11459,01.238,553
2023-10-01T03:14:07,42.805,6.029,CST-1368DR,4150,4485,11458,01.238,553
2023-10-01T03:17:08,42.805,6.029,CST-1368DR,4150,4485,11458,01.238,553
2023-10-01T03:20:10,42.805,6.029,CST-1368DR,4150,4486,11459,01.238,553
2023-10-01T03:23:11,42.805,6.029,CST-1368DR,4150,4486,11460,01.238,552
2023-10-01T03:26:13,42.805,6.029,CST-1368DR,4150,4485,11456,01.239,553
2023-10-01T03:29:15,42.805,6.029,CST-1368DR,4150,4485,11456,01.239,552
2023-10-01T03:32:16,42.805,6.029,CST-1368DR,4150,4484,11454,01.240,553
2023-10-01T03:35:18,42.805,6.029,CST-1368DR,4150,4484,11455,01.239,553
2023-10-01T03:38:19,42.805,6.029,CST-1368DR,4150,4482,11450,01.241,553
2023-10-01T03:41:21,42.805,6.029,CST-1368DR,4150,4483,11453,01.240,553
2023-10-01T03:44:23,42.805,6.029,CST-1368DR,4150,4483,11452,01.241,553
2023-10-01T03:47:24,42.805,6.029,CST-1368DR,4150,4486,11459,01.238,553
2023-10-01T03:50:26,42.805,6.029,CST-1368DR,4150,4485,11456,01.239,553
2023-10-01T03:53:27,42.805,6.029,CST-1368DR,4150,4485,11458,01.238,553
2023-10-01T03:56:29,42.805,6.029,CST-1368DR,4150,4485,11456,01.239,553
2023-10-01T03:59:30,42.805,6.029,CST-1368DR,4150,4484,11455,01.239,552
2023-10-01T04:02:32,42.805,6.029,CST-1368DR,4150,4485,11456,01.239,553
2023-10-01T04:05:34,42.805,6.029,CST-1368DR,4150,4483,11453,01.240,553
2023-10-01T04:08:35,42.805,6.029,CST-1368DR,4150,4485,11456,01.239,553
2023-10-01T04:11:37,42.805,6.029,CST-1368DR,4150,4484,11455,01.239,553
2023-10-01T04:14:38,42.805,6.029,CST-1368DR,4150,4483,11452,01.241,553
2023-10-01T04:17:40,42.805,6.029,CST-1368DR,4150,4483,11452,01.241,553
2023-10-01T04:20:41,42.805,6.029,CST-1368DR,4150,4483,11452,01.241,553
2023-10-01T04:23:43,42.805,6.029,CST-1368DR,4150,4484,11454,01.240,552
2023-10-01T04:26:45,42.805,6.029,CST-1368DR,4150,4485,11456,01.239,553
2023-10-01T04:29:46,42.805,6.029,CST-1368DR,4150,4483,11453,01.240,552
2023-10-01T04:32:49,42.805,6.029,CST-1368DR,4150,4484,11454,01.240,553
2023-10-01T04:35:51,42.805,6.029,CST-1368DR,4150,4484,11454,01.240,552
2023-10-01T04:38:52,42.805,6.029,CST-1368DR,4150,4484,11454,01.240,553
2023-10-01T04:41:54,42.805,6.029,CST-1368DR,4150,4483,11452,01.241,553
2023-10-01T04:44:55,42.805,6.029,CST-1368DR,4150,4484,11454,01.240,553
2023-10-01T04:47:57,42.805,6.029,CST-1368DR,4150,4484,11455,01.239,553
2023-10-01T04:50:58,42.805,6.029,CST-1368DR,4150,4484,11455,01.239,553
2023-10-01T04:54:00,42.805,6.029,CST-1368DR,4150,4484,11454,01.240,553
2023-10-01T04:57:02,42.805,6.029,CST-1368DR,4150,4485,11458,01.238,553
2023-10-01T05:00:03,42.805,6.029,CST-1368DR,4150,4483,11453,01.240,553
2023-10-01T05:03:05,42.805,6.029,CST-1368DR,4150,4484,11455,01.239,553
2023-10-01T05:06:06,42.805,6.029,CST-1368DR,4150,4485,11457,01.239,553
2023-10-01T05:09:08,42.805,6.029,CST-1368DR,4150,4485,11458,01.238,553
2023-10-01T05:12:09,42.805,6.029,CST-1368DR,4150,4485,11458,01.238,553
2023-10-01T05:15:11,42.805,6.029,CST-1368DR,4150,4486,11459,01.238,553
2023-10-01T05:18:13,42.805,6.029,CST-1368DR,4150,4486,11459,01.238,553
2023-10-01T05:21:14,42.805,6.029,CST-1368DR,4150,4487,11462,01.237,553
2023-10-01T05:24:16,42.805,6.029,CST-1368DR,4150,4484,11454,01.240,552
2023-10-01T05:27:17,42.805,6.029,CST-1368DR,4150,4485,11458,01.238,553
2023-10-01T05:30:19,42.805,6.029,CST-1368DR,4150,4484,11455,01.239,552
2023-10-01T05:33:21,42.805,6.029,CST-1368DR,4150,4485,11456,01.239,553
2023-10-01T05:36:22,42.805,6.029,CST-1368DR,4150,4485,11458,01.238,552
2023-10-01T05:39:24,42.805,6.029,CST-1368DR,4150,4485,11458,01.238,553
2023-10-01T05:42:25,42.805,6.029,CST-1368DR,4150,4485,11457,01.239,552
2023-10-01T05:45:27,42.805,6.029,CST-1368DR,4150,4485,11458,01.238,553
2023-10-01T05:48:28,42.805,6.029,CST-1368DR,4150,4484,11455,01.239,552
2023-10-01T05:51:30,42.805,6.029,CST-1368DR,4150,4485,11456,01.239,552
2023-10-01T05:54:32,42.805,6.029,CST-1368DR,4150,4486,11459,01.238,552
2023-10-01T05:57:33,42.805,6.029,CST-1368DR,4150,4485,11458,01.238,553
2023-10-01T06:00:35,42.805,6.029,CST-1368DR,4150,4486,11459,01.238,553
2023-10-01T06:03:36,42.805,6.029,CST-1368DR,4150,4485,11457,01.239,553
2023-10-01T06:06:38,42.805,6.029,CST-1368DR,4150,4485,11456,01.239,553
2023-10-01T06:09:39,42.805,6.029,CST-1368DR,4150,4483,11453,01.240,552
2023-10-01T06:12:41,42.805,6.029,CST-1368DR,4150,4485,11456,01.239,553
2023-10-01T06:15:43,42.805,6.029,CST-1368DR,4150,4484,11455,01.239,553
2023-10-01T06:18:44,42.805,6.029,CST-1368DR,4150,4484,11455,01.239,553
2023-10-01T06:21:46,42.805,6.029,CST-1368DR,4150,4484,11454,01.240,553
2023-10-01T06:24:47,42.805,6.029,CST-1368DR,4150,4484,11454,01.240,552
2023-10-01T06:27:49,42.805,6.029,CST-1368DR,4150,4484,11454,01.240,553
2023-10-01T06:30:52,42.805,6.029,CST-1368DR,4150,4481,11447,01.242,553
2023-10-01T06:33:54,42.805,6.029,CST-1368DR,4150,4481,11446,01.243,552
2023-10-01T06:36:55,42.805,6.029,CST-1368DR,4150,4481,11446,01.243,553
2023-10-01T06:39:57,42.805,6.029,CST-1368DR,4150,4481,11446,01.243,553
2023-10-01T06:42:58,42.805,6.029,CST-1368DR,4150,4482,11448,01.242,553
2023-10-01T06:46:00,42.805,6.029,CST-1368DR,4150,4477,11436,01.246,553
2023-10-01T06:49:02,42.805,6.029,CST-1368DR,4150,4480,11444,01.243,552
2023-10-01T06:52:03,42.805,6.029,CST-1368DR,4150,4480,11445,01.243,553
2023-10-01T06:55:05,42.805,6.029,CST-1368DR,4150,4480,11445,01.243,552
2023-10-01T06:58:06,42.805,6.029,CST-1368DR,4150,4480,11444,01.243,553
2023-10-01T07:01:08,42.805,6.029,CST-1368DR,4150,4481,11446,01.243,553
2023-10-01T07:04:09,42.805,6.029,CST-1368DR,4150,4481,11446,01.243,552
2023-10-01T07:07:11,42.805,6.029,CST-1368DR,4150,4480,11444,01.243,553
2023-10-01T07:10:13,42.805,6.029,CST-1368DR,4150,4480,11445,01.243,553
2023-10-01T07:13:14,42.805,6.029,CST-1368DR,4150,4482,11448,01.242,553
2023-10-01T07:16:16,42.805,6.029,CST-1368DR,4150,4480,11444,01.243,552
2023-10-01T07:19:17,42.805,6.029,CST-1368DR,4150,4481,11446,01.243,553
2023-10-01T07:22:19,42.805,6.029,CST-1368DR,4150,4480,11443,01.244,553
2023-10-01T07:25:20,42.805,6.029,CST-1368DR,4150,4480,11444,01.243,553
2023-10-01T07:28:22,42.805,6.029,CST-1368DR,4150,4480,11445,01.243,553
2023-10-01T07:31:24,42.805,6.029,CST-1368DR,4150,4481,11446,01.243,553
2023-10-01T07:34:25,42.805,6.029,CST-1368DR,4150,4480,11445,01.243,553
2023-10-01T07:37:27,42.805,6.029,CST-1368DR,4150,4480,11445,01.243,553
2023-10-01T07:40:28,42.805,6.029,CST-1368DR,4150,4481,11446,01.243,553
2023-10-01T07:43:30,42.805,6.029,CST-1368DR,4150,4480,11444,01.243,553
2023-10-01T07:46:32,42.805,6.029,CST-1368DR,4150,4480,11445,01.243,553
2023-10-01T07:49:33,42.805,6.029,CST-1368DR,4150,4481,11446,01.243,552
2023-10-01T07:52:35,42.805,6.029,CST-1368DR,4150,4481,11446,01.243,553
2023-10-01T07:55:36,42.805,6.029,CST-1368DR,4150,4480,11445,01.243,553
2023-10-01T07:58:38,42.805,6.029,CST-1368DR,4150,4481,11446,01.243,553
2023-10-01T08:01:39,42.805,6.029,CST-1368DR,4150,4481,11447,01.242,553
2023-10-01T08:04:41,42.805,6.029,CST-1368DR,4150,4480,11445,01.243,553
2023-10-01T08:07:43,42.805,6.029,CST-1368DR,4150,4481,11446,01.243,553
2023-10-01T08:10:44,42.805,6.029,CST-1368DR,4150,4481,11446,01.243,552
2023-10-01T08:13:46,42.805,6.029,CST-1368DR,4150,4480,11445,01.243,553
2023-10-01T08:16:47,42.805,6.029,CST-1368DR,4150,4482,11448,01.242,553
2023-10-01T08:19:49,42.805,6.029,CST-1368DR,4150,4481,11446,01.243,553
2023-10-01T08:22:50,42.805,6.029,CST-1368DR,4150,4480,11445,01.243,553
2023-10-01T08:25:52,42.805,6.029,CST-1368DR,4150,4480,11443,01.244,553
2023-10-01T08:28:54,42.805,6.029,CST-1368DR,4150,4481,11447,01.242,553
2023-10-01T08:31:55,42.805,6.029,CST-1368DR,4150,4483,11453,01.240,552
2023-10-01T08:34:57,42.805,6.029,CST-1368DR,4150,4480,11445,01.243,553
2023-10-01T08:37:58,42.805,6.029,CST-1368DR,4150,4480,11445,01.243,552
2023-10-01T08:41:00,42.805,6.029,CST-1368DR,4150,4481,11447,01.242,553
2023-10-01T08:44:02,42.805,6.029,CST-1368DR,4150,4480,11445,01.243,553
2023-10-01T08:47:03,42.805,6.029,CST-1368DR,4150,4481,11446,01.243,553
2023-10-01T08:50:05,42.805,6.029,CST-1368DR,4150,4481,11446,01.243,553
2023-10-01T08:53:06,42.805,6.029,CST-1368DR,4150,4480,11445,01.243,553
2023-10-01T08:56:08,42.805,6.029,CST-1368DR,4150,4480,11443,01.244,553
2023-10-01T08:59:10,42.805,6.029,CST-1368DR,4150,4480,11445,01.243,553
2023-10-01T09:02:11,42.805,6.029,CST-1368DR,4150,4480,11445,01.243,553
2023-10-01T09:05:13,42.805,6.029,CST-1368DR,4150,4480,11445,01.243,553
2023-10-01T09:08:14,42.805,6.029,CST-1368DR,4150,4480,11445,01.243,553
2023-10-01T09:11:16,42.805,6.029,CST-1368DR,4150,4480,11443,01.244,553
2023-10-01T09:14:17,42.805,6.029,CST-1368DR,4150,4480,11445,01.243,552
2023-10-01T09:17:19,42.805,6.029,CST-1368DR,4150,4481,11446,01.243,553
2023-10-01T09:20:21,42.805,6.029,CST-1368DR,4150,4482,11448,01.242,553
2023-10-01T09:23:22,42.805,6.029,CST-1368DR,4150,4480,11445,01.243,553
2023-10-01T09:26:24,42.805,6.029,CST-1368DR,4150,4480,11445,01.243,553
2023-10-01T09:29:25,42.805,6.029,CST-1368DR,4150,4480,11445,01.243,553
2023-10-01T09:32:27,42.805,6.029,CST-1368DR,4150,4481,11446,01.243,553
2023-10-01T09:35:29,42.805,6.029,CST-1368DR,4150,4480,11443,01.244,553
2023-10-01T09:38:30,42.805,6.029,CST-1368DR,4150,4480,11445,01.243,553
2023-10-01T09:41:32,42.805,6.029,CST-1368DR,4150,4481,11446,01.243,552
2023-10-01T09:44:33,42.805,6.029,CST-1368DR,4150,4481,11446,01.243,553
2023-10-01T09:47:35,42.805,6.029,CST-1368DR,4150,4480,11445,01.243,553
2023-10-01T09:50:36,42.805,6.029,CST-1368DR,4150,4481,11446,01.243,553
2023-10-01T09:53:38,42.805,6.029,CST-1368DR,4150,4480,11445,01.243,553
2023-10-01T09:56:40,42.805,6.029,CST-1368DR,4150,4480,11445,01.243,553
2023-10-01T09:59:41,42.805,6.029,CST-1368DR,4150,4480,11445,01.243,553
2023-10-01T10:02:43,42.805,6.029,CST-1368DR,4150,4480,11443,01.244,553
2023-10-01T10:05:44,42.805,6.029,CST-1368DR,4150,4482,11448,01.242,553
2023-10-01T10:08:46,42.805,6.029,CST-1368DR,4150,4480,11445,01.243,553
2023-10-01T10:11:47,42.805,6.029,CST-1368DR,4150,4480,11445,01.243,553
2023-10-01T10:14:49,42.805,6.029,CST-1368DR,4150,4480,11445,01.243,553
2023-10-01T10:17:51,42.805,6.029,CST-1368DR,4150,4480,11444,01.243,553
2023-10-01T10:20:52,42.805,6.029,CST-1368DR,4150,4480,11445,01.243,553
2023-10-01T10:23:54,42.805,6.029,CST-1368DR,4150,4480,11445,01.243,553
2023-10-01T10:26:55,42.805,6.029,CST-1368DR,4150,4481,11446,01.243,552
2023-10-01T10:29:57,42.805,6.029,CST-1368DR,4150,4481,11446,01.243,553
2023-10-01T10:32:58,42.805,6.029,CST-1368DR,4150,4480,11445,01.243,553
2023-10-01T10:36:00,42.805,6.029,CST-1368DR,4150,4482,11448,01.242,553
2023-10-01T10:39:02,42.805,6.029,CST-1368DR,4150,4481,11447,01.242,553
2023-10-01T10:42:03,42.805,6.029,CST-1368DR,4150,4481,11447,01.242,552
2023-10-01T10:45:05,42.805,6.029,CST-1368DR,4150,4481,11446,01.243,553
2023-10-01T10:48:06,42.805,6.029,CST-1368DR,4150,4481,11446,01.243,553
2023-10-01T10:51:08,42.805,6.029,CST-1368DR,4150,4482,11448,01.242,553
2023-10-01T10:54:10,42.805,6.029,CST-1368DR,4150,4482,11449,01.242,552
2023-10-01T10:57:11,42.805,6.029,CST-1368DR,4150,4480,11443,01.244,553
2023-10-01T11:00:13,42.805,6.029,CST-1368DR,4150,4481,11446,01.243,553
2023-10-01T11:03:14,42.805,6.029,CST-1368DR,4150,4481,11447,01.242,552
2023-10-01T11:06:16,42.805,6.029,CST-1368DR,4150,4479,11443,01.244,553
2023-10-01T11:09:17,42.805,6.029,CST-1368DR,4150,4479,11442,01.244,552
2023-10-01T11:12:19,42.805,6.029,CST-1368DR,4150,4480,11443,01.244,553
2023-10-01T11:15:21,42.805,6.029,CST-1368DR,4150,4480,11444,01.243,553
2023-10-01T11:18:22,42.805,6.029,CST-1368DR,4150,4480,11443,01.244,552
2023-10-01T11:21:24,42.805,6.029,CST-1368DR,4150,4479,11442,01.244,552
2023-10-01T11:24:25,42.805,6.029,CST-1368DR,4150,4480,11443,01.244,553
2023-10-01T11:27:27,42.805,6.029,CST-1368DR,4150,4479,11443,01.244,552
2023-10-01T11:30:28,42.805,6.029,CST-1368DR,4150,4479,11441,01.244,553
2023-10-01T11:33:30,42.805,6.029,CST-1368DR,4150,4480,11443,01.244,553
2023-10-01T11:36:32,42.805,6.029,CST-1368DR,4150,4480,11445,01.243,553
2023-10-01T11:39:33,42.805,6.029,CST-1368DR,4150,4480,11443,01.244,552
2023-10-01T11:42:35,42.805,6.029,CST-1368DR,4150,4480,11443,01.244,553
2023-10-01T11:45:36,42.805,6.029,CST-1368DR,4150,4480,11444,01.243,553
2023-10-01T11:48:38,42.805,6.029,CST-1368DR,4150,4480,11443,01.244,553
2023-10-01T11:51:40,42.805,6.029,CST-1368DR,4150,4479,11443,01.244,553
2023-10-01T11:54:41,42.805,6.029,CST-1368DR,4150,4479,11441,01.244,553
2023-10-01T11:57:43,42.805,6.029,CST-1368DR,4150,4480,11443,01.244,552
2023-10-01T12:00:44,42.805,6.029,CST-1368DR,4150,4479,11441,01.244,552
2023-10-01T12:03:46,42.805,6.029,CST-1368DR,4150,4478,11439,01.245,552
2023-10-01T12:06:47,42.805,6.029,CST-1368DR,4150,4479,11442,01.244,553
2023-10-01T12:09:49,42.805,6.029,CST-1368DR,4150,4479,11441,01.244,553
2023-10-01T12:12:51,42.805,6.029,CST-1368DR,4150,4480,11443,01.244,552
2023-10-01T12:15:52,42.805,6.029,CST-1368DR,4150,4478,11439,01.245,552
2023-10-01T12:18:54,42.805,6.029,CST-1368DR,4150,4478,11439,01.245,553
2023-10-01T12:21:55,42.805,6.029,CST-1368DR,4150,4480,11443,01.244,553
2023-10-01T12:24:57,42.805,6.029,CST-1368DR,4150,4480,11443,01.244,552
2023-10-01T12:27:58,42.805,6.029,CST-1368DR,4150,4479,11442,01.244,553
2023-10-01T12:31:00,42.805,6.029,CST-1368DR,4150,4480,11443,01.244,552
2023-10-01T12:34:02,42.805,6.029,CST-1368DR,4150,4480,11444,01.243,553
2023-10-01T12:37:03,42.805,6.029,CST-1368DR,4150,4479,11443,01.244,553
2023-10-01T12:40:05,42.805,6.029,CST-1368DR,4150,4479,11443,01.244,553
2023-10-01T12:43:06,42.805,6.029,CST-1368DR,4150,4480,11444,01.243,553
2023-10-01T12:46:08,42.805,6.029,CST-1368DR,4150,4480,11443,01.244,553
2023-10-01T12:49:10,42.805,6.029,CST-1368DR,4150,4479,11442,01.244,553
2023-10-01T12:52:11,42.805,6.029,CST-1368DR,4150,4479,11442,01.244,553
2023-10-01T12:55:13,42.805,6.029,CST-1368DR,4150,4479,11443,01.244,553
2023-10-01T12:58:14,42.805,6.029,CST-1368DR,4150,4481,11446,01.243,552
2023-10-01T13:01:16,42.805,6.029,CST-1368DR,4150,4477,11438,01.245,553
2023-10-01T13:04:17,42.805,6.029,CST-1368DR,4150,4479,11443,01.244,552
2023-10-01T13:07:19,42.805,6.029,CST-1368DR,4150,4480,11443,01.244,553
2023-10-01T13:10:21,42.805,6.029,CST-1368DR,4150,4479,11442,01.244,552
2023-10-01T13:13:22,42.805,6.029,CST-1368DR,4150,4480,11444,01.243,553
2023-10-01T13:16:24,42.805,6.029,CST-1368DR,4150,4480,11443,01.244,553
2023-10-01T13:19:25,42.805,6.029,CST-1368DR,4150,4480,11445,01.243,553
2023-10-01T13:22:27,42.805,6.029,CST-1368DR,4150,4480,11443,01.244,553
2023-10-01T13:25:28,42.805,6.029,CST-1368DR,4150,4480,11443,01.244,553
2023-10-01T13:28:30,42.805,6.029,CST-1368DR,4150,4480,11444,01.243,553
2023-10-01T13:31:32,42.805,6.029,CST-1368DR,4150,4480,11444,01.243,553
2023-10-01T13:34:33,42.805,6.029,CST-1368DR,4150,4479,11443,01.244,553
2023-10-01T13:37:35,42.805,6.029,CST-1368DR,4149,4480,11446,01.243,553
2023-10-01T13:40:36,42.805,6.029,CST-1368DR,4150,4480,11444,01.243,552
2023-10-01T13:43:38,42.805,6.029,CST-1368DR,4150,4480,11445,01.243,553
2023-10-01T13:46:40,42.805,6.029,CST-1368DR,4150,4479,11441,01.244,553
2023-10-01T13:49:41,42.805,6.029,CST-1368DR,4150,4479,11443,01.244,553
2023-10-01T13:52:43,42.805,6.029,CST-1368DR,4149,4480,11446,01.243,553
2023-10-01T13:55:44,42.805,6.029,CST-1368DR,4149,4479,11445,01.243,553
2023-10-01T13:58:46,42.805,6.029,CST-1368DR,4149,4480,11446,01.243,553
2023-10-01T14:01:47,42.805,6.029,CST-1368DR,4150,4480,11443,01.244,552
2023-10-01T14:04:49,42.805,6.029,CST-1368DR,4149,4480,11447,01.242,553
2023-10-01T14:07:51,42.805,6.029,CST-1368DR,4149,4479,11444,01.243,553
2023-10-01T14:10:52,42.805,6.029,CST-1368DR,4149,4479,11445,01.243,553
2023-10-01T14:13:54,42.805,6.029,CST-1368DR,4150,4480,11444,01.243,553
2023-10-01T14:16:55,42.805,6.029,CST-1368DR,4150,4480,11443,01.244,553
2023-10-01T14:19:57,42.805,6.029,CST-1368DR,4150,4480,11443,01.244,553
2023-10-01T14:22:58,42.805,6.029,CST-1368DR,4149,4480,11446,01.243,553
2023-10-01T14:26:00,42.805,6.029,CST-1368DR,4149,4479,11445,01.243,553
2023-10-01T14:29:02,42.805,6.029,CST-1368DR,4150,4479,11442,01.244,553
2023-10-01T14:32:06,42.805,6.029,CST-1368DR,4149,4479,11445,01.243,553
2023-10-01T14:35:07,42.805,6.029,CST-1368DR,4150,4480,11444,01.243,553
2023-10-01T14:38:09,42.805,6.029,CST-1368DR,4150,4480,11444,01.243,553
2023-10-01T14:41:11,42.805,6.029,CST-1368DR,4149,4480,11446,01.243,553
2023-10-01T14:44:12,42.805,6.029,CST-1368DR,4149,4480,11447,01.242,553
2023-10-01T14:47:14,42.805,6.029,CST-1368DR,4149,4480,11446,01.243,553
2023-10-01T14:50:15,42.805,6.029,CST-1368DR,4150,4479,11443,01.244,553
2023-10-01T14:53:17,42.805,6.029,CST-1368DR,4150,4478,11439,01.245,552
2023-10-01T14:56:19,42.805,6.029,CST-1368DR,4150,4479,11441,01.244,553
2023-10-01T14:59:20,42.805,6.029,CST-1368DR,4149,4479,11445,01.243,553
2023-10-01T15:02:22,42.805,6.029,CST-1368DR,4150,4480,11443,01.244,553
2023-10-01T15:05:23,42.805,6.029,CST-1368DR,4149,4480,11448,01.242,553
2023-10-01T15:08:25,42.805,6.029,CST-1368DR,4149,4478,11443,01.244,553
2023-10-01T15:11:26,42.805,6.029,CST-1368DR,4149,4479,11444,01.243,552
2023-10-01T15:14:28,42.805,6.029,CST-1368DR,4149,4475,11435,01.246,552
2023-10-01T15:17:30,42.805,6.029,CST-1368DR,4150,4479,11443,01.244,553
2023-10-01T15:20:31,42.805,6.029,CST-1368DR,4150,4478,11439,01.245,553
2023-10-01T15:23:33,42.805,6.029,CST-1368DR,4150,4480,11443,01.244,553
2023-10-01T15:26:34,42.805,6.029,CST-1368DR,4149,4480,11447,01.242,553
2023-10-01T15:29:36,42.805,6.029,CST-1368DR,4150,4478,11440,01.245,553
2023-10-01T15:32:37,42.805,6.029,CST-1368DR,4150,4480,11444,01.243,553
2023-10-01T15:35:39,42.805,6.029,CST-1368DR,4149,4480,11447,01.242,553
2023-10-01T15:38:41,42.805,6.029,CST-1368DR,4149,4479,11445,01.243,553
2023-10-01T15:41:42,42.805,6.029,CST-1368DR,4149,4480,11446,01.243,553
2023-10-01T15:44:44,42.805,6.029,CST-1368DR,4149,4480,11446,01.243,553
2023-10-01T15:47:45,42.805,6.029,CST-1368DR,4150,4479,11443,01.244,553
2023-10-01T15:50:47,42.805,6.029,CST-1368DR,4150,4479,11441,01.244,553
2023-10-01T15:53:49,42.805,6.029,CST-1368DR,4150,4480,11445,01.243,553
2023-10-01T15:56:50,42.805,6.029,CST-1368DR,4150,4480,11443,01.244,553
2023-10-01T15:59:52,42.805,6.029,CST-1368DR,4149,4479,11445,01.243,553
2023-10-01T16:02:53,42.805,6.029,CST-1368DR,4150,4480,11445,01.243,553
2023-10-01T16:05:55,42.805,6.029,CST-1368DR,4149,4480,11446,01.243,553
2023-10-01T16:08:56,42.805,6.029,CST-1368DR,4149,4479,11445,01.243,553
2023-10-01T16:11:58,42.805,6.029,CST-1368DR,4149,4479,11445,01.243,553
2023-10-01T16:15:00,42.805,6.029,CST-1368DR,4149,4480,11447,01.242,553
2023-10-01T16:18:01,42.805,6.029,CST-1368DR,4149,4480,11447,01.242,553
2023-10-01T16:21:03,42.805,6.029,CST-1368DR,4150,4480,11444,01.243,553
2023-10-01T16:24:04,42.805,6.029,CST-1368DR,4150,4481,11446,01.243,553
2023-10-01T16:27:06,42.805,6.029,CST-1368DR,4150,4480,11443,01.244,553
2023-10-01T16:30:08,42.805,6.029,CST-1368DR,4150,4480,11444,01.243,553
2023-10-01T16:33:09,42.805,6.029,CST-1368DR,4150,4480,11443,01.244,553
2023-10-01T16:36:11,42.805,6.029,CST-1368DR,4150,4481,11446,01.243,553